Theta_e
313 312 313 314 314 317 320 321 323 323 326 326 320 322 321 321 323 320 322 321 319 320 318 319 319 318 319 318 319 318 318 322 322 323 323 322 321 319 320 317 318 319 319 319 320 324 326 329 330 330 330 330 331 331 331 331 331 330 329 329 328 328 327 328 329 330 332 330 325 323 322 321 322 321 321 321 322 321 321 322 322 322 321 322 324 329 332 333 333 331 330 329 326 325 327 328 327
313 313 314 313 316 321 321 321 328 331 329 321 317 321 320 320 321 322 326 322 321 320 319 319 319 319 319 319 319 319 318 319 319 319 320 321 321 320 321 319 318 319 320 319 319 322 324 327 328 330 330 330 330 330 331 330 331 330 330 328 328 327 326 328 329 330 330 326 322 322 321 322 322 322 322 321 322 322 322 322 323 322 322 323 325 330 333 334 333 331 329 327 326 326 326 327 328
312 313 313 314 320 322 323 323 328 332 328 320 320 326 321 318 323 326 324 320 319 319 319 319 319 321 319 319 319 319 319 319 319 319 320 321 320 319 319 319 318 318 320 319 319 319 322 325 327 329 329 330 329 329 329 330 330 330 330 329 328 327 326 327 329 329 327 323 321 322 321 322 322 322 323 322 322 323 323 323 323 322 322 325 326 328 333 334 334 331 328 326 325 325 325 325 326
312 314 315 317 321 322 330 332 334 334 324 321 322 325 325 321 328 325 319 318 319 319 320 319 319 320 319 320 319 318 319 319 320 319 320 319 318 317 316 317 317 317 319 319 319 319 320 322 325 327 329 330 329 329 329 329 330 329 330 329 328 327 325 327 328 328 325 322 321 322 322 322 322 323 323 322 322 322 323 323 323 322 322 325 325 327 332 333 333 330 326 324 324 323 322 322 322
313 316 318 319 322 322 330 330 332 334 323 324 321 320 331 330 329 322 316 319 319 319 319 319 320 319 320 319 319 319 318 319 319 319 318 316 316 316 316 317 316 316 319 320 320 319 319 321 323 325 327 329 329 328 328 328 329 329 329 328 328 326 325 326 326 325 324 322 322 322 322 322 322 322 322 321 322 323 324 324 323 322 322 324 325 327 330 331 332 328 324 324 323 323 320 317 316
316 317 318 319 320 318 326 324 322 331 328 328 321 322 334 326 321 318 317 319 319 319 319 319 319 318 319 318 319 319 318 319 318 318 317 316 317 316 316 316 316 316 317 319 320 320 319 320 321 323 325 327 328 328 328 328 328 328 328 328 327 326 325 325 325 325 324 322 322 322 322 322 322 322 323 321 322 324 324 324 323 323 322 322 324 327 329 330 329 326 325 324 323 323 319 314 312
320 319 318 320 320 318 331 328 323 329 323 321 321 324 325 317 315 316 317 319 319 319 319 319 318 318 318 318 319 319 319 319 319 319 317 317 317 315 315 315 316 315 316 318 319 320 320 320 320 321 323 324 326 327 328 328 328 328 327 327 326 326 325 324 324 324 324 323 322 323 323 322 322 322 322 320 323 324 322 321 320 321 322 321 322 325 327 327 325 323 322 321 320 318 315 311 311
321 320 317 325 328 327 335 327 327 329 318 314 317 318 317 315 315 316 318 318 319 319 319 319 318 318 319 318 318 319 319 319 319 318 317 317 316 315 315 315 316 316 315 316 318 320 320 320 320 320 321 322 323 325 326 328 328 327 327 326 326 325 324 323 323 323 323 323 323 324 323 323 325 325 324 321 324 324 319 319 318 318 319 320 320 321 322 321 319 317 316 316 314 313 311 310 310
319 320 317 325 332 333 334 323 323 323 320 319 315 316 316 316 316 316 318 317 317 317 318 319 318 319 318 317 318 319 318 318 319 317 317 317 316 316 316 315 315 315 316 315 317 319 320 320 320 320 320 321 322 322 324 326 327 328 327 327 327 326 325 324 323 323 323 323 323 323 323 324 327 327 326 324 325 325 320 320 320 319 318 317 318 319 320 320 318 315 313 312 311 310 310 309 308
318 320 317 325 334 331 326 321 323 319 320 319 314 317 317 316 317 316 318 316 316 315 317 319 318 319 317 318 318 319 319 318 318 317 317 317 316 316 316 316 315 315 315 315 316 317 319 320 320 320 320 320 321 321 322 323 325 326 327 327 327 326 325 324 324 324 323 324 323 323 324 324 326 327 327 327 327 327 324 324 324 323 321 319 319 319 320 319 318 318 315 310 311 310 308 307 306
320 319 319 330 335 326 321 323 329 328 325 319 315 318 316 316 317 316 317 315 315 315 316 318 318 318 316 317 318 318 318 318 318 317 317 317 316 316 317 316 316 315 315 316 315 316 318 319 320 320 321 320 320 320 321 322 323 324 325 326 326 326 325 325 325 324 323 324 324 324 324 323 325 326 328 330 328 327 327 326 327 327 324 322 319 317 317 316 315 317 315 309 310 308 305 305 304
320 322 331 340 331 324 322 324 332 336 333 325 318 317 316 316 317 316 316 315 315 315 316 317 318 317 316 316 317 317 317 317 319 318 318 317 316 316 317 317 316 315 315 315 315 316 316 318 319 320 321 321 321 320 321 321 322 322 323 324 325 324 324 324 324 324 324 324 324 325 325 324 326 327 327 331 331 328 329 328 328 328 325 323 318 314 314 312 311 313 312 309 309 306 304 304 304
320 323 335 331 323 324 322 323 329 332 330 324 317 316 317 315 317 317 315 315 315 316 317 317 317 317 316 316 316 317 317 317 318 318 318 318 317 316 316 317 317 316 315 315 315 315 315 316 317 319 320 321 322 321 322 322 322 322 322 323 324 324 323 323 323 323 323 324 325 325 324 323 326 328 326 329 332 329 329 330 329 328 325 323 319 315 313 313 311 309 310 309 307 305 304 304 304
320 320 327 321 320 325 320 320 324 323 321 320 317 315 317 316 316 316 315 317 316 316 317 317 317 316 316 315 316 316 315 316 316 317 317 318 317 316 316 317 317 316 316 315 315 315 315 315 315 317 319 321 322 322 322 322 322 323 322 323 323 324 324 323 322 322 322 323 325 325 324 323 323 327 326 327 331 329 329 330 329 329 327 324 320 315 314 316 314 309 309 307 306 305 304 304 304
318 319 327 325 322 324 319 320 324 323 319 318 318 315 316 316 316 316 316 317 317 316 317 317 317 316 316 315 315 316 316 316 316 316 316 317 318 317 316 317 317 317 316 316 315 315 315 315 315 315 317 318 320 321 322 322 323 323 322 323 323 324 324 324 323 321 321 323 325 324 324 324 323 325 326 326 329 330 329 329 329 329 328 325 321 315 313 314 311 308 308 306 305 305 304 304 304
318 317 326 325 319 321 318 319 323 323 318 316 316 315 316 316 316 317 317 317 316 316 316 316 316 316 316 315 316 316 316 316 316 316 316 317 317 317 317 317 317 317 317 317 316 316 315 315 315 315 315 316 317 318 320 321 322 323 323 323 323 324 324 324 324 322 321 321 322 323 324 325 326 325 325 326 329 330 330 329 327 326 327 325 320 315 312 310 307 307 308 305 305 304 304 304 304
315 319 328 323 317 320 320 322 322 320 320 319 316 316 316 317 317 317 317 317 317 316 316 316 315 316 315 316 316 315 316 316 315 316 316 316 317 317 316 317 317 317 317 317 317 316 316 315 315 315 315 315 316 317 318 320 321 323 323 324 325 325 324 324 324 323 321 319 320 321 322 325 326 326 326 327 329 331 331 330 328 326 325 322 319 315 311 308 305 306 306 304 305 304 304 304 304
318 328 326 320 323 325 324 326 320 316 319 317 316 316 316 317 318 316 317 317 316 316 316 316 315 315 315 315 315 315 315 315 316 315 316 316 316 316 316 316 316 316 317 317 317 317 316 316 315 315 315 315 315 316 316 317 319 321 323 324 326 326 326 326 326 324 322 320 318 319 321 323 325 325 325 326 329 330 330 330 329 327 324 321 318 315 312 308 305 305 305 304 304 304 304 304 305
322 328 320 324 334 326 319 321 317 315 317 316 316 316 315 317 316 315 317 316 316 316 316 316 316 316 316 316 315 315 315 315 315 315 316 316 316 316 316 316 316 316 316 317 317 317 317 316 315 315 315 315 315 315 316 316 317 319 321 323 325 325 326 327 326 325 324 322 319 318 319 320 322 323 323 324 327 329 329 329 329 328 326 321 317 315 312 308 305 305 305 304 303 303 304 304 304
319 320 322 334 329 317 316 317 316 316 316 315 315 315 315 316 315 315 315 315 316 315 316 315 315 316 315 315 315 315 315 314 315 314 315 315 315 315 316 316 316 316 316 317 317 317 317 316 316 315 316 317 316 316 315 315 316 317 319 321 323 325 325 326 326 325 324 323 322 320 319 319 320 321 321 322 325 327 328 329 329 328 326 321 317 315 312 309 306 304 305 304 303 303 304 304 304
317 318 327 328 316 315 318 316 317 316 315 315 315 315 314 315 315 315 314 316 317 315 315 315 315 316 315 315 314 314 314 314 314 314 314 314 315 315 315 315 315 316 315 316 317 317 317 316 316 316 316 317 317 317 316 316 316 316 317 318 321 323 324 325 325 325 325 324 324 322 320 319 320 320 320 320 322 325 327 328 328 328 325 320 317 316 313 311 307 304 305 304 303 303 303 304 304
318 319 321 318 313 317 318 316 317 316 314 315 314 315 315 316 315 315 315 316 317 316 316 316 315 315 314 314 314 314 314 314 315 314 314 314 314 314 314 315 315 315 315 315 315 316 317 317 317 316 316 317 317 318 318 318 317 317 317 317 319 320 323 325 325 325 325 325 325 325 324 321 320 320 319 318 319 321 326 328 328 328 325 320 318 317 314 313 309 305 304 304 303 303 303 303 304
319 320 316 316 315 316 317 317 317 316 315 314 314 315 315 314 315 315 314 315 317 316 316 315 315 315 314 314 314 314 314 314 314 314 314 314 314 314 314 315 315 315 315 315 315 316 317 317 316 316 316 316 317 318 318 318 318 318 318 318 318 318 321 324 325 325 325 326 326 325 325 323 322 322 321 319 318 319 322 325 327 327 325 322 319 316 315 314 312 308 305 303 303 302 303 303 303
319 321 316 316 316 315 317 317 316 316 315 314 314 314 313 314 315 315 314 316 317 316 315 314 314 314 314 314 314 314 314 314 314 314 314 314 314 314 315 315 315 315 315 315 315 315 316 316 316 316 316 316 317 318 318 319 318 319 319 320 320 319 319 322 325 324 324 325 327 327 326 325 325 324 323 321 320 320 321 324 326 327 326 325 322 317 315 315 314 312 307 304 303 302 302 302 303
318 321 316 314 315 315 316 315 315 315 314 314 314 312 312 313 314 313 315 317 317 316 315 314 314 314 314 314 314 314 314 313 314 314 314 314 314 314 315 315 314 315 315 315 315 315 315 316 316 315 316 316 316 318 319 319 319 319 319 320 320 321 321 321 323 325 327 325 325 327 326 326 326 325 324 324 322 321 323 325 327 328 327 327 325 321 318 318 317 315 311 307 304 302 302 302 302
316 317 315 314 314 314 315 315 315 315 314 314 313 313 313 312 313 314 316 317 316 316 314 314 314 314 315 314 313 314 313 314 313 313 313 313 314 314 314 314 314 314 314 315 315 315 316 315 315 316 316 316 317 318 319 320 320 320 320 320 321 322 323 323 323 325 329 330 329 327 326 326 326 326 326 325 324 322 323 327 327 327 327 327 324 321 321 321 320 318 315 312 307 303 302 302 302
314 313 313 313 313 313 314 314 314 314 313 313 313 314 312 311 314 317 318 316 315 315 314 313 314 314 314 314 313 313 313 313 313 313 313 313 313 313 313 313 314 314 314 315 315 315 315 315 315 316 316 316 316 317 319 320 321 321 321 321 322 323 324 326 326 325 327 329 330 328 327 327 326 326 326 326 325 324 324 326 327 327 327 326 324 323 323 324 322 320 318 316 312 307 303 302 302
313 312 313 313 312 313 313 313 313 313 314 313 313 312 311 311 313 317 317 315 314 313 313 312 313 313 313 313 313 313 313 312 312 312 312 313 313 313 313 313 313 314 314 314 315 315 315 315 316 316 315 315 315 316 319 321 322 322 322 322 323 323 324 326 327 327 327 327 327 326 326 327 326 326 327 326 326 325 325 326 327 327 327 326 326 325 325 324 324 322 319 318 317 311 306 302 302
313 312 314 316 314 315 314 312 312 312 314 314 312 314 315 314 315 318 316 315 314 312 312 312 311 312 312 313 312 312 312 311 311 311 312 312 312 312 312 312 313 313 313 313 314 314 315 315 316 316 315 315 315 315 319 322 323 323 323 323 324 324 325 326 326 327 328 328 327 327 327 327 327 327 327 327 326 325 326 327 327 327 327 327 326 326 325 324 324 323 321 320 319 316 310 304 302
314 311 313 317 317 320 315 310 312 312 313 313 312 317 324 321 316 316 316 315 314 312 312 311 311 311 311 311 311 311 311 310 311 311 311 311 311 311 311 312 312 312 312 312 313 313 313 314 315 315 315 314 315 316 319 322 323 324 324 324 325 325 325 325 326 326 327 327 327 328 328 328 328 328 327 327 326 326 326 326 326 326 326 325 325 325 325 325 324 323 322 321 320 319 315 308 302
315 311 315 318 317 326 321 310 312 314 313 312 312 318 325 324 317 314 315 314 314 312 310 310 310 310 310 310 310 310 310 310 310 310 310 310 310 311 311 311 311 311 312 311 312 312 312 313 313 313 314 314 315 316 318 322 324 325 325 325 325 325 326 326 326 326 327 326 326 326 326 326 326 326 326 326 326 326 326 326 326 325 325 325 325 325 325 324 324 324 323 323 321 320 318 313 305
321 314 323 325 316 325 325 310 310 315 313 310 313 319 321 320 316 314 313 313 314 311 310 310 309 309 308 308 308 308 309 308 309 309 310 310 309 310 309 310 310 310 311 311 311 312 312 313 313 314 314 315 315 315 318 322 325 326 326 326 326 326 327 327 328 328 327 327 327 327 327 326 325 325 325 325 325 325 325 325 325 325 325 325 324 324 324 324 324 324 324 323 323 321 320 318 313
327 318 323 329 319 320 321 313 310 311 312 311 312 318 319 318 314 313 312 312 313 311 310 309 308 308 307 307 307 307 308 308 308 309 309 309 309 309 308 309 309 309 310 310 311 312 313 314 314 315 315 316 316 316 318 322 324 325 326 326 326 327 327 327 328 328 328 328 329 329 328 328 328 328 327 327 326 325 324 324 324 325 325 325 325 325 325 325 324 324 324 323 322 322 321 320 319
329 319 317 324 321 317 319 319 313 309 313 314 312 314 317 317 313 312 312 311 311 311 310 308 307 307 306 306 306 306 307 307 308 308 308 308 308 307 308 308 308 309 309 310 311 311 313 314 315 315 315 316 316 318 320 322 324 325 325 325 325 326 327 327 326 326 327 327 328 327 327 326 327 327 327 327 328 327 327 326 325 325 325 325 325 325 325 325 324 323 323 322 321 320 321 321 320
328 322 319 322 320 318 318 319 316 314 316 316 316 316 317 318 314 311 311 310 311 310 308 307 305 305 305 305 305 306 306 306 307 306 306 306 306 306 306 307 308 309 309 310 311 311 312 313 314 314 314 315 316 318 320 322 324 324 325 325 325 325 325 325 326 325 326 326 327 327 326 326 326 326 326 327 327 327 327 326 325 325 325 325 324 324 324 323 323 322 322 321 319 319 319 319 319
324 322 323 324 322 320 318 317 315 313 316 318 317 317 318 318 315 311 310 309 309 307 306 305 304 304 304 304 304 304 304 304 304 304 305 305 305 306 306 307 308 308 309 310 310 310 311 311 312 312 313 314 316 318 320 321 323 323 323 323 323 324 323 324 324 324 325 325 325 326 326 326 326 326 326 325 325 325 325 325 325 325 325 325 325 324 324 324 323 323 322 321 320 320 319 318 318
318 319 320 321 320 318 316 317 316 311 313 320 317 316 318 317 315 311 308 310 308 305 304 303 302 303 303 303 303 303 303 302 302 303 304 305 305 305 306 307 307 308 309 309 310 309 310 310 310 310 311 312 314 316 318 320 321 321 322 322 322 322 322 322 322 322 323 323 322 323 323 324 324 325 324 324 324 324 324 324 324 324 323 324 324 323 323 323 322 321 321 320 320 320 319 319 318
314 316 317 317 318 317 314 315 316 311 313 320 315 314 318 316 314 309 306 310 308 303 303 302 301 301 301 302 301 301 301 301 302 303 304 304 305 305 306 307 307 308 308 308 308 308 309 309 309 309 310 310 311 312 313 315 316 317 319 319 320 320 320 320 320 320 320 320 320 320 319 320 320 322 322 323 323 323 323 322 322 321 322 322 322 322 321 320 319 318 318 319 319 319 319 318 318
314 315 315 317 317 317 318 317 316 312 313 321 317 314 318 316 315 310 304 306 304 302 303 301 301 301 300 301 300 301 301 301 302 303 304 304 305 305 306 306 307 307 307 307 307 307 308 308 307 308 308 308 308 309 310 310 311 312 314 315 315 315 316 317 317 317 317 318 318 318 318 318 318 318 319 320 321 321 321 321 320 320 320 320 320 320 319 318 317 317 317 317 318 318 318 318 317
316 317 316 318 317 317 322 321 317 315 313 316 316 314 317 316 315 310 303 302 302 301 302 301 300 300 300 300 300 300 301 301 302 302 303 304 305 305 305 306 306 306 307 307 307 307 308 308 308 307 307 307 308 308 308 308 309 309 309 310 310 310 311 311 311 312 312 312 312 313 314 315 315 316 317 317 318 318 318 318 318 318 318 318 318 317 317 317 316 316 316 317 316 315 315 315 315
319 319 317 318 318 317 320 320 318 319 316 315 314 317 324 322 318 314 305 302 302 301 301 300 300 300 300 300 300 300 301 301 302 303 303 304 305 305 305 306 306 306 307 307 307 308 308 308 308 308 308 308 308 308 307 307 307 307 307 307 307 307 307 307 307 307 306 306 307 307 307 308 309 311 312 312 313 313 313 314 314 314 314 314 314 314 315 315 315 315 316 316 315 314 313 313 313
321 322 319 317 318 318 318 318 316 320 323 317 313 322 334 329 321 315 307 305 304 301 300 300 299 299 300 300 300 300 301 301 302 303 303 304 305 305 305 306 306 307 307 307 307 307 307 307 307 307 307 307 307 307 307 307 307 307 307 307 307 307 307 306 306 305 305 305 305 304 304 304 305 305 306 306 306 307 307 307 307 308 308 309 310 311 311 312 313 314 314 314 314 313 312 312 312
321 321 319 316 315 316 318 317 317 322 324 316 311 319 330 329 325 317 309 309 306 302 301 300 299 299 299 299 299 300 300 301 302 302 303 304 305 305 305 305 306 306 306 306 306 306 306 306 306 306 306 306 306 306 306 306 306 306 306 306 306 306 306 306 306 305 305 304 304 303 303 303 303 303 303 303 303 303 303 303 304 304 305 305 306 307 308 309 310 311 311 312 312 312 311 310 310
324 319 319 320 317 318 320 319 318 322 320 318 319 319 319 323 326 317 310 311 308 303 302 300 299 299 299 299 299 299 300 301 302 303 303 304 304 304 304 304 305 305 305 305 305 305 305 305 305 305 305 305 305 304 305 305 305 305 305 305 305 305 305 305 305 305 305 304 304 303 303 303 303 302 302 302 302 302 302 302 302 302 302 303 303 304 305 306 307 308 308 309 309 310 310 310 310
322 316 316 320 319 320 324 321 320 318 314 321 326 318 315 322 324 314 309 312 313 308 305 302 299 299 298 298 298 299 300 300 302 302 303 303 304 304 304 304 304 304 303 304 303 304 303 304 304 304 304 304 303 303 303 303 303 303 303 304 304 304 304 304 304 304 304 304 304 304 303 303 303 302 302 302 301 301 301 301 301 301 301 301 301 301 301 302 303 304 305 306 306 307 308 308 308
314 311 315 318 318 320 323 323 320 317 316 321 323 318 317 323 325 318 311 313 316 311 305 301 300 299 298 298 298 298 300 300 302 302 303 303 303 303 303 303 303 303 303 302 302 302 302 302 303 303 303 303 302 302 302 302 302 302 302 302 303 303 303 303 303 303 303 303 303 303 303 303 303 302 302 302 301 301 301 300 300 300 300 300 300 300 300 300 300 300 301 302 303 304 305 306 306
308 313 319 320 322 322 322 323 319 317 320 321 321 319 317 320 326 322 315 314 313 312 307 301 299 299 298 298 298 298 299 300 301 302 302 302 302 302 302 302 302 302 302 302 302 301 301 301 301 302 302 302 302 301 301 302 301 301 301 301 301 301 301 301 302 302 302 302 302 302 302 302 302 301 301 301 300 300 300 300 300 299 299 299 299 299 299 299 299 299 299 299 299 300 301 302 303
310 321 323 321 324 322 322 324 320 320 324 320 317 316 314 319 324 319 316 313 308 309 309 303 299 299 298 298 298 298 299 300 301 301 301 302 302 302 302 302 302 301 301 301 301 301 301 301 301 301 301 301 301 301 301 301 301 301 301 301 301 300 300 300 300 301 300 300 300 300 299 299 299 298 298 298 298 297 297 297 297 297 297 298 297 297 297 297 297 297 298 298 298 298 298 299 299
316 322 322 322 323 321 324 324 321 322 321 315 313 315 314 318 319 315 315 312 304 303 304 301 299 299 298 298 297 298 299 300 300 301 301 301 301 302 301 301 301 301 301 300 300 300 300 300 300 300 300 300 300 300 300 300 300 300 300 300 300 300 299 299 299 299 298 298 298 297 297 297 297 296 295 295 295 294 294 294 294 294 294 294 294 293 293 294 294 294 294 295 295 295 296 296 297
316 318 321 324 322 322 326 323 318 320 318 311 311 314 316 318 316 313 311 306 300 299 301 301 300 299 299 298 298 298 298 299 300 300 301 301 301 301 301 301 300 300 300 300 300 299 299 299 299 299 299 299 299 299 299 299 299 299 299 299 299 299 298 298 298 298 297 296 296 296 296 295 295 294 294 293 292 291 291 291 291 291 291 291 291 291 291 291 291 291 291 291 291 291 291 292 293
314 317 318 321 324 325 325 322 320 321 320 313 310 314 321 322 313 305 302 300 298 299 301 301 300 299 299 297 297 298 298 298 299 299 300 301 301 301 300 300 300 300 300 299 299 299 299 299 299 299 299 298 298 298 298 298 298 298 298 298 297 297 297 297 297 297 296 296 295 294 294 293 293 292 292 291 291 290 290 290 290 290 290 290 290 290 290 290 290 290 290 290 289 289 289 289 289
313 313 315 318 321 321 319 319 318 318 319 316 313 317 321 317 308 301 300 299 298 299 299 299 299 299 298 297 297 297 297 298 298 299 300 300 300 300 300 300 300 299 299 299 299 298 298 298 298 298 298 298 297 297 297 296 296 296 296 296 296 295 295 295 295 294 294 294 293 292 292 291 291 290 290 290 289 289 289 289 289 289 289 289 289 289 289 289 289 289 289 289 289 289 289 289 288
313 312 317 317 315 317 319 317 313 312 317 318 315 318 319 314 309 303 302 302 299 298 298 298 298 298 297 297 297 297 297 298 299 299 300 300 300 299 299 299 299 299 298 298 298 298 297 297 297 297 296 296 296 295 295 295 294 294 294 294 294 293 293 293 292 292 292 291 291 291 290 290 290 290 290 289 289 289 289 289 289 289 289 289 288 289 289 289 289 289 289 288 289 289 288 288 288
315 316 317 313 312 317 320 320 318 315 317 318 316 317 318 318 314 306 303 304 302 299 297 297 297 297 297 297 297 297 298 298 299 299 299 299 299 299 299 298 298 298 297 297 297 297 297 296 296 295 295 294 294 294 293 293 292 292 292 292 291 291 291 290 290 290 290 289 289 289 289 289 289 289 289 289 289 289 289 289 289 289 289 288 288 288 288 288 288 288 288 288 288 288 288 288 288
314 316 312 313 318 320 317 318 320 319 318 319 321 319 316 317 316 311 310 310 304 300 298 297 297 296 297 297 298 298 298 298 298 299 299 299 299 299 298 298 298 297 297 297 296 296 296 295 294 294 293 292 292 291 291 291 290 290 290 290 289 289 289 289 289 289 289 289 289 289 289 289 289 289 289 289 289 289 289 289 289 289 289 289 288 288 288 288 288 287 287 287 287 287 287 287 287
310 311 309 313 319 320 318 318 318 320 319 319 321 319 318 318 316 317 318 311 303 300 299 298 297 297 298 298 298 298 298 298 299 300 300 299 299 298 298 298 297 297 296 296 296 295 295 294 293 292 291 291 290 290 289 289 289 289 289 289 289 289 289 288 288 288 288 288 288 288 288 288 288 288 288 288 288 288 288 288 288 288 288 288 288 288 288 288 288 287 287 287 287 287 287 287 287
311 314 313 313 314 316 318 317 316 320 321 320 319 317 321 321 313 315 318 310 302 300 300 298 297 298 299 299 299 298 298 299 300 301 300 299 298 298 297 297 296 296 296 296 295 295 294 293 292 291 290 290 289 289 289 289 289 289 289 289 288 288 288 288 288 288 288 288 288 288 288 288 288 288 288 288 288 287 287 287 287 287 287 287 287 287 287 287 287 287 287 287 287 287 287 287 287
314 315 315 315 315 315 317 316 316 317 318 320 319 317 321 318 308 309 313 307 301 299 299 297 297 299 300 300 299 299 300 301 302 301 300 299 298 297 297 296 296 297 297 296 295 294 293 291 291 290 289 289 289 289 289 289 289 288 288 288 288 288 288 288 288 288 288 288 288 288 288 288 288 288 288 288 287 287 287 287 287 287 287 287 287 287 287 287 287 287 287 287 287 287 287 287 287
Wind_Speed
7 6 7 6 5 5 5 2 0 2 4 2 2 1 2 3 2 1 3 3 1 3 3 1 0 2 0 1 2 3 3 3 2 2 1 4 2 3 2 1 1 2 3 5 9 13 16 17 17 16 16 16 16 17 17 16 16 15 14 13 11 10 9 10 10 10 11 12 11 11 10 9 8 7 6 6 6 6 6 6 5 5 4 4 4 3 3 4 6 5 5 4 4 3 3 4 5
6 6 7 4 4 4 4 0 2 3 5 2 2 2 3 2 1 3 5 4 2 1 1 1 0 1 2 2 2 2 3 4 4 3 3 4 3 4 3 2 1 2 3 3 7 11 14 16 16 16 15 15 15 16 16 16 16 15 14 13 11 10 9 9 10 10 11 11 10 9 8 7 6 6 5 6 6 7 7 6 5 5 4 3 3 3 4 6 7 8 6 5 5 5 4 4 5
5 5 5 3 3 2 1 2 2 2 5 2 3 3 2 1 4 7 8 5 2 1 0 1 0 1 0 2 1 1 2 4 4 4 3 3 4 5 4 4 2 3 4 3 5 8 12 14 15 16 15 15 14 15 15 16 16 15 14 13 12 10 10 10 10 10 10 11 10 8 8 7 6 6 6 6 7 8 8 8 7 6 4 3 4 5 7 7 8 10 7 6 6 6 5 4 4
4 3 3 3 2 1 2 4 2 4 4 3 2 4 2 3 7 8 6 4 2 1 1 1 1 2 1 2 1 2 3 3 3 3 2 3 4 5 5 4 2 3 5 4 4 6 9 12 14 15 15 15 14 14 14 15 15 15 14 13 12 11 10 10 10 11 11 11 10 9 8 8 8 8 7 7 8 9 9 10 9 8 5 5 6 7 9 9 9 9 7 5 5 6 5 5 5
3 1 2 2 1 0 3 3 3 4 3 4 1 4 5 6 7 6 4 2 3 1 1 1 2 1 2 2 2 1 3 2 2 2 2 3 5 6 5 4 2 3 4 5 4 4 7 10 13 14 14 14 14 13 13 14 14 14 14 14 13 12 11 11 11 11 12 12 11 10 10 9 9 9 9 8 8 9 9 9 9 9 7 6 7 8 9 11 10 7 5 5 6 7 7 7 6
2 1 3 2 2 1 2 3 2 1 4 5 3 5 6 7 7 4 1 3 3 1 0 1 2 2 2 2 2 2 3 2 3 2 1 3 5 7 6 4 2 2 4 6 5 4 5 9 11 13 14 14 14 14 14 13 13 14 13 13 13 13 12 12 12 12 12 12 12 11 11 11 11 11 10 9 8 8 7 7 8 9 9 8 9 9 10 11 9 6 7 7 7 8 9 9 8
2 1 3 2 3 2 3 3 4 2 3 5 3 5 6 7 6 2 1 2 1 1 1 1 2 3 1 2 3 3 4 5 5 3 2 2 4 6 6 5 3 2 3 5 6 5 4 7 10 12 13 14 15 14 14 14 14 14 13 13 13 14 13 13 13 13 13 13 13 12 12 12 11 11 11 10 8 8 6 4 5 8 9 9 10 10 12 12 10 8 9 9 9 9 10 10 8
2 2 3 2 2 4 4 2 3 2 1 3 3 5 6 5 5 2 1 1 1 2 2 1 2 2 1 4 4 4 6 6 5 4 3 3 2 5 6 6 4 2 2 4 6 6 6 6 8 11 13 14 14 14 14 15 15 15 14 14 14 14 14 14 14 14 14 14 13 13 12 12 11 11 11 9 9 9 7 4 3 4 6 8 9 10 11 12 11 10 10 9 9 9 10 9 8
3 3 2 2 2 3 3 1 2 3 3 4 4 5 5 3 3 2 1 1 1 3 3 1 1 2 4 6 6 5 6 5 5 5 4 4 2 3 6 6 5 3 2 3 5 7 7 7 7 9 11 13 14 15 15 15 16 16 15 15 15 15 15 15 15 15 15 15 14 14 13 12 11 11 10 9 9 9 8 6 4 3 4 6 7 8 9 11 12 12 11 9 7 9 9 8 6
3 4 1 2 3 3 3 1 1 2 4 5 5 6 3 2 3 1 3 2 2 4 4 1 2 2 5 7 7 5 4 5 5 7 5 5 4 2 4 7 6 4 2 3 4 6 7 8 8 9 10 12 14 15 15 15 16 17 16 16 16 16 16 16 16 16 16 16 16 15 14 13 12 11 10 9 10 10 9 7 6 5 5 5 6 7 9 12 13 13 12 8 6 8 8 7 5
2 4 3 4 4 2 1 2 3 4 5 5 6 6 3 3 2 2 2 2 1 3 4 1 2 2 3 6 8 7 6 7 5 7 6 6 6 5 4 7 7 4 3 3 4 6 7 9 9 10 10 12 13 14 15 16 16 17 17 17 17 17 17 17 17 17 17 17 17 16 15 14 11 10 11 11 11 11 10 9 7 6 6 6 7 8 10 12 13 12 12 7 6 8 6 6 4
1 2 3 4 3 2 2 2 5 5 6 4 3 3 1 2 1 0 0 1 1 3 4 1 1 1 2 5 8 8 7 7 4 6 7 8 8 7 6 7 8 6 4 4 5 6 8 9 10 11 11 12 13 14 15 16 16 17 17 17 17 17 17 17 17 18 17 17 17 17 16 14 12 11 12 12 12 12 11 10 9 9 7 8 9 10 11 12 12 12 11 6 6 7 6 6 5
1 2 4 3 2 2 3 1 4 4 5 3 3 1 2 2 2 2 2 1 2 2 3 1 1 2 2 6 7 6 8 9 5 5 9 10 11 10 9 9 10 7 5 5 5 6 8 9 10 11 12 13 14 15 15 16 17 17 17 17 17 17 17 17 17 17 17 17 17 17 16 15 13 13 13 13 14 13 13 12 11 10 8 8 10 12 11 11 11 9 7 5 6 7 6 6 5
3 2 4 2 1 2 3 0 2 1 2 4 3 3 4 4 3 2 1 2 3 1 2 1 2 4 3 5 5 4 10 14 11 10 11 11 12 12 11 12 12 9 6 6 6 7 8 9 10 11 12 13 14 15 16 16 17 18 17 17 17 17 17 17 17 17 17 17 17 17 17 16 15 15 15 15 16 14 15 14 12 10 9 9 11 12 11 11 10 7 5 5 6 6 6 6 6
3 3 4 3 2 1 3 0 1 4 1 3 2 5 6 5 4 4 3 3 4 2 2 3 3 5 3 3 7 11 15 17 16 13 10 11 13 13 13 14 15 13 9 8 7 8 8 10 11 11 12 14 15 16 16 16 16 17 18 18 17 17 17 17 17 16 17 17 17 17 17 16 16 17 17 17 18 16 16 17 15 11 10 10 11 12 11 12 11 7 5 6 7 7 7 7 7
4 3 5 3 1 1 2 1 2 4 2 3 2 6 5 4 3 4 6 5 7 7 6 7 6 7 9 10 14 17 17 17 15 11 9 10 11 13 15 16 17 16 13 11 10 9 9 10 12 12 13 13 15 16 16 16 16 17 17 18 18 18 18 17 17 17 16 16 17 18 17 17 16 17 18 18 18 17 16 18 16 12 11 10 10 11 11 13 12 8 7 7 8 8 8 8 8
3 3 4 2 2 2 3 3 2 2 4 4 5 6 2 4 4 5 7 8 12 13 13 13 11 11 13 15 16 16 15 15 12 11 13 12 11 13 15 16 16 16 15 15 13 12 11 11 12 13 14 14 15 15 16 17 17 17 18 18 18 19 19 18 18 17 17 16 17 17 17 17 16 17 17 18 19 18 17 18 17 13 11 11 10 11 11 12 11 7 7 8 9 9 9 9 9
2 3 3 1 3 3 4 6 5 3 3 4 4 4 1 4 6 7 6 8 14 18 21 18 12 10 11 13 13 13 14 13 13 14 16 15 14 13 13 14 14 14 14 15 15 13 13 12 11 13 15 15 15 16 16 17 17 18 18 19 19 19 19 19 19 19 18 17 17 17 17 17 17 17 17 18 19 19 18 18 17 15 13 11 11 11 11 12 10 7 7 8 10 10 11 10 10
2 3 2 3 5 5 5 7 5 3 3 5 5 5 4 6 6 5 4 8 13 15 21 19 13 14 16 17 15 15 15 15 15 15 16 17 16 16 15 15 15 15 15 15 15 14 13 13 11 11 13 14 16 17 17 17 18 19 19 20 20 20 20 20 20 20 19 19 18 18 17 17 17 17 17 17 19 20 20 19 19 17 15 14 12 12 12 12 10 9 9 9 10 12 12 11 11
1 3 1 6 6 4 6 8 6 4 5 6 6 5 6 8 7 4 3 7 11 10 14 15 15 21 22 20 17 15 15 14 14 15 16 16 16 17 17 17 18 18 18 18 16 15 14 13 12 11 10 12 14 16 17 18 18 19 19 20 21 21 21 21 21 21 21 21 20 19 19 18 18 17 17 18 19 20 20 20 20 18 17 15 13 13 12 12 11 10 10 9 11 14 13 12 12
1 4 3 4 4 2 6 7 6 5 4 6 7 5 7 9 6 4 2 4 8 11 12 11 16 24 23 17 14 12 12 12 12 12 13 13 13 13 14 14 15 16 17 18 17 16 15 13 12 11 10 10 12 13 15 17 18 19 19 20 21 21 22 22 22 22 22 22 22 21 20 19 19 18 18 18 19 20 20 21 21 20 19 17 15 14 13 12 13 12 11 9 11 15 15 14 13
2 4 6 5 3 2 8 7 5 5 5 8 8 6 8 9 7 7 4 3 8 14 17 16 19 21 18 13 11 11 10 10 9 8 9 9 10 10 10 12 13 14 15 16 16 16 16 14 12 11 10 10 10 10 11 14 16 17 19 19 20 21 22 23 23 23 23 22 23 23 22 21 20 20 20 19 19 20 21 23 22 22 21 19 16 15 13 13 14 14 12 10 12 16 16 16 15
2 4 6 7 6 6 11 11 10 10 9 8 8 9 10 9 11 11 9 13 17 20 20 18 17 14 11 11 11 12 12 11 9 7 7 7 9 10 11 12 14 15 15 15 14 14 15 14 12 11 10 9 9 10 10 11 12 14 15 18 20 20 20 22 24 24 23 23 24 23 23 23 22 22 21 21 20 20 22 23 24 24 23 21 19 16 13 13 15 15 14 11 12 16 18 17 17
3 3 5 6 8 9 13 14 14 15 13 14 12 13 12 8 9 10 15 22 20 19 16 13 10 9 10 11 12 12 11 9 8 7 7 7 9 12 14 15 16 16 15 15 14 14 13 13 12 10 8 8 8 9 10 10 10 11 13 15 17 18 19 20 22 24 24 24 25 25 24 24 24 23 23 23 22 21 22 23 25 25 24 23 21 18 15 14 15 17 16 14 13 16 19 19 19
4 5 5 5 8 11 14 15 18 20 19 17 12 14 15 11 9 11 20 21 13 12 10 8 6 7 10 12 12 12 11 9 7 6 6 7 9 12 14 15 16 15 14 14 14 14 13 13 12 10 8 8 8 9 10 10 10 10 11 13 14 16 17 17 18 21 25 24 23 25 24 23 24 24 24 24 23 22 22 24 26 26 25 24 23 21 18 16 17 17 18 16 15 16 19 21 20
5 5 6 7 11 15 16 18 21 20 18 13 9 13 14 9 6 10 16 11 7 7 5 5 5 8 12 14 13 11 11 10 8 8 7 8 9 10 11 12 13 13 13 12 13 14 13 13 13 11 9 8 9 9 9 9 10 10 10 11 12 13 15 15 15 17 22 25 24 24 23 23 23 24 24 24 24 23 23 25 26 26 25 25 24 23 21 20 20 19 18 18 17 17 19 22 22
2 4 7 11 14 17 16 18 22 18 15 13 10 11 10 3 2 6 8 3 2 3 4 5 6 9 11 11 11 11 10 9 9 8 8 9 9 9 9 9 10 10 11 11 11 13 13 13 13 13 11 10 9 8 8 8 9 8 8 10 11 11 11 13 14 14 16 21 23 23 22 22 22 21 23 23 23 23 23 24 25 26 26 25 24 24 24 24 22 20 18 18 18 18 19 22 24
3 5 8 12 13 16 16 15 18 12 7 9 9 7 5 3 3 7 7 3 5 5 6 5 6 7 7 7 9 9 9 8 7 7 7 8 8 8 7 7 7 8 9 10 10 11 12 12 12 13 12 10 9 8 7 7 7 7 7 8 8 8 9 10 11 12 12 13 16 17 17 18 18 18 20 21 22 22 23 23 24 25 25 24 25 25 24 24 23 20 18 17 18 19 20 22 24
4 4 5 9 9 11 13 8 5 3 2 3 4 3 3 3 7 10 7 6 8 8 7 7 4 2 1 4 6 6 7 6 6 6 6 6 5 5 5 5 6 7 8 9 9 9 9 9 10 11 11 11 9 8 7 6 6 6 6 6 6 7 8 8 8 9 9 10 11 12 13 14 15 15 16 17 19 20 22 22 23 24 23 23 24 24 23 22 22 21 19 18 18 18 20 23 25
4 2 1 5 7 7 7 1 2 1 2 4 5 2 6 5 12 12 5 8 9 9 8 6 4 2 2 3 4 5 5 5 5 6 5 5 4 5 5 6 6 6 7 8 8 8 7 7 8 9 10 11 10 8 7 6 6 6 5 5 5 5 5 5 6 6 7 8 9 10 11 11 12 13 14 14 15 16 17 18 19 19 19 20 21 20 20 20 21 20 19 19 19 19 19 22 25
2 1 2 2 2 5 6 2 2 1 1 5 6 2 7 7 11 8 5 8 10 10 7 4 3 3 3 3 2 3 3 3 4 5 5 5 5 5 6 7 7 8 8 8 9 8 7 7 8 9 11 11 11 9 8 7 6 6 5 5 4 4 4 4 4 5 6 6 7 8 9 9 10 11 12 12 12 13 14 15 15 15 15 16 17 17 18 19 19 20 19 20 21 20 19 19 22
2 1 3 3 2 5 10 5 4 3 1 4 6 2 6 9 11 7 5 8 11 8 4 4 3 3 2 2 1 1 1 2 3 4 5 6 6 6 6 7 7 8 8 8 9 8 7 7 7 9 10 10 10 9 8 7 6 5 4 4 4 4 4 5 5 5 6 8 9 11 11 11 11 12 13 13 13 13 13 13 13 12 13 14 15 16 16 17 18 19 20 20 21 21 20 18 19
3 1 3 3 3 3 7 5 0 1 2 2 2 2 4 7 9 7 7 11 10 3 2 4 4 3 2 2 2 1 1 1 2 3 4 6 7 7 7 7 6 6 6 6 6 7 6 5 5 6 6 6 7 7 7 7 6 5 4 3 4 4 3 4 4 5 7 9 10 11 12 13 14 15 15 15 15 15 14 14 14 14 15 16 17 17 17 18 19 20 20 21 22 22 21 20 19
3 1 2 4 4 3 4 4 4 5 3 0 1 1 6 9 13 14 11 9 3 3 3 4 4 3 4 3 3 2 1 0 1 3 4 5 6 7 7 6 5 4 3 2 3 3 3 3 2 2 1 2 3 3 4 5 5 5 4 4 3 2 2 2 3 4 5 7 8 9 11 11 12 13 13 14 15 17 17 17 17 17 17 17 18 19 19 19 19 21 22 22 23 24 23 22 21
3 2 3 4 3 4 5 4 3 5 3 1 1 2 9 12 14 14 10 7 3 6 8 7 6 5 5 5 4 4 3 3 4 5 5 5 5 5 5 4 4 3 3 3 2 2 1 1 1 1 1 1 1 1 1 2 3 3 4 4 3 2 2 2 2 3 3 5 6 7 9 10 11 12 11 12 14 16 17 17 16 17 18 18 19 19 19 20 21 21 21 21 23 23 23 23 22
6 5 5 3 4 5 6 5 5 2 2 4 5 5 9 12 11 9 10 8 7 10 11 9 8 7 7 6 6 6 6 6 7 6 5 5 4 3 3 3 3 4 4 4 3 2 2 3 2 2 3 3 3 2 2 2 2 2 2 2 3 4 3 3 3 2 2 2 3 4 5 5 7 9 10 11 12 13 14 15 16 16 17 18 20 21 21 22 22 21 21 21 22 22 22 22 22
4 3 3 4 5 6 5 5 5 0 0 5 4 4 8 11 8 7 10 8 8 10 11 11 10 9 9 8 8 7 8 9 8 6 6 5 4 4 5 5 5 4 5 5 5 6 7 6 5 6 7 5 4 3 3 2 2 2 2 2 2 3 4 4 4 3 3 3 4 5 6 5 5 7 8 10 11 13 14 14 13 13 14 15 18 19 19 19 19 19 21 22 23 23 22 22 22
2 2 3 4 5 7 6 5 5 1 2 4 2 2 9 11 5 7 9 6 7 6 9 11 11 11 10 10 9 9 9 9 8 7 8 7 7 7 7 7 7 8 10 11 12 13 13 13 12 12 12 9 8 7 5 4 3 2 1 2 2 3 4 4 5 5 6 6 7 8 8 8 9 8 8 8 10 12 14 15 15 15 16 16 16 17 17 17 18 18 19 21 22 23 23 23 23
2 2 2 4 4 4 7 5 5 2 3 4 2 1 9 11 3 6 8 7 7 7 10 10 11 12 11 11 11 11 11 12 12 13 13 13 13 13 13 14 15 16 19 19 19 19 19 19 19 18 17 15 15 14 11 10 8 6 4 3 1 1 2 2 3 4 5 6 7 9 9 10 11 12 12 13 13 14 16 17 17 18 19 19 19 20 21 21 21 20 19 20 22 23 24 24 24
3 4 3 5 3 1 4 5 5 2 1 2 2 2 7 8 1 5 7 9 12 12 12 11 11 12 12 12 12 13 14 15 16 17 18 18 19 20 21 23 23 23 24 24 23 23 23 23 22 21 21 20 19 18 16 15 13 11 9 8 6 4 4 2 1 1 2 4 5 7 8 9 11 12 13 15 16 17 18 19 20 21 21 21 22 22 22 22 22 21 20 21 22 23 23 24 24
4 5 6 5 4 5 6 4 5 4 3 2 1 2 5 5 3 0 4 9 11 11 12 12 11 11 12 13 13 14 16 17 18 20 21 22 24 24 25 26 26 26 26 26 25 25 25 24 24 23 22 22 22 21 19 16 14 13 13 12 11 9 8 7 5 4 4 3 3 3 4 6 8 10 11 13 14 16 17 18 19 20 21 21 21 21 21 21 20 20 20 21 21 21 21 22 22
4 6 9 10 8 7 6 3 5 4 4 3 3 3 5 4 3 3 3 4 6 6 9 11 10 11 12 13 14 15 17 18 20 21 23 24 26 26 26 26 27 27 27 26 25 24 24 23 23 22 22 22 22 21 20 17 15 15 14 14 14 12 11 11 10 10 9 7 7 6 5 5 5 6 7 9 11 12 14 15 16 17 18 19 19 19 19 19 19 19 20 20 20 20 20 21 22
2 5 8 10 7 5 5 2 1 0 4 3 2 1 5 5 3 4 4 3 4 4 5 7 8 9 11 13 14 15 17 19 20 22 23 25 26 25 26 26 26 27 26 25 23 23 22 21 21 21 21 21 21 20 18 16 15 14 14 13 13 13 12 13 13 12 11 10 9 7 6 5 5 5 5 6 7 8 10 11 13 14 15 15 16 17 18 18 19 20 21 21 20 20 20 21 21
3 4 4 6 6 6 5 5 4 3 3 4 3 1 3 4 4 3 4 5 2 2 2 4 7 8 11 13 14 16 17 19 21 23 24 25 25 25 25 25 25 25 24 22 21 21 20 20 19 19 19 19 19 17 16 14 13 13 13 12 12 12 13 13 12 11 11 10 9 8 8 7 7 6 5 4 4 5 6 7 9 10 12 13 14 15 15 16 17 19 21 22 22 22 22 23 23
5 3 6 6 6 5 4 5 3 1 1 4 4 1 2 5 4 2 2 3 4 4 4 4 7 9 10 12 14 15 17 19 21 23 24 24 24 24 23 23 23 22 21 20 20 19 19 18 18 17 18 18 17 15 14 13 13 12 12 11 11 11 11 11 10 10 9 9 9 9 9 9 9 9 8 8 7 6 6 6 6 7 8 10 11 12 12 13 14 16 18 20 22 23 24 24 25
4 6 7 6 5 5 4 5 3 2 1 4 6 3 1 5 5 2 1 3 6 4 5 6 9 11 11 12 13 15 17 19 21 22 23 23 22 22 21 20 20 19 18 18 18 18 17 17 16 17 18 17 16 15 14 13 13 12 11 10 10 11 11 10 9 8 9 8 8 8 8 8 9 9 9 10 9 9 9 8 8 8 8 9 9 9 10 11 12 13 14 16 19 21 23 24 25
7 7 6 6 5 5 3 3 4 2 3 6 9 8 5 5 5 3 3 3 4 4 4 6 9 12 13 14 14 16 18 20 21 22 22 21 21 20 19 18 17 17 16 15 15 15 16 16 15 16 17 16 14 14 13 12 12 11 11 11 10 11 10 8 7 8 8 7 7 7 7 7 7 8 8 8 8 8 9 9 9 10 10 10 10 10 10 10 10 11 11 13 15 17 20 22 24
6 4 4 3 3 4 4 4 3 0 5 5 5 4 5 5 5 4 4 2 1 4 5 8 12 15 17 16 16 17 18 20 21 21 21 20 19 18 16 15 15 14 13 12 13 13 14 15 14 15 16 14 13 12 11 11 10 10 10 9 8 8 7 5 5 6 7 6 7 7 6 6 6 6 6 6 7 7 8 8 8 9 9 10 11 13 13 13 12 12 11 11 12 13 15 17 20
5 4 5 3 2 3 3 3 0 3 6 3 1 1 2 6 6 3 4 3 4 5 5 11 18 21 21 20 19 19 20 20 21 21 20 19 18 16 14 13 13 12 11 11 12 12 13 14 13 13 14 13 12 10 10 9 8 8 7 7 6 5 5 4 5 5 5 5 5 5 4 4 5 6 7 8 8 9 9 9 10 10 11 11 12 13 13 13 13 13 13 13 13 13 13 13 14
5 5 5 4 2 1 3 3 1 4 5 3 2 1 2 5 3 2 4 5 6 8 8 14 24 28 25 23 22 21 21 21 21 21 20 18 16 14 13 12 11 10 10 10 10 10 11 11 11 11 12 11 10 9 8 7 7 6 5 4 4 3 4 4 5 5 5 6 6 6 6 6 7 8 9 10 10 10 11 11 11 11 11 12 12 12 13 13 14 14 15 15 15 15 15 15 14
4 4 5 5 5 4 4 3 3 4 4 3 2 1 3 3 2 2 2 3 5 3 4 16 25 27 26 24 23 22 22 21 21 20 19 17 15 13 11 10 9 8 8 8 8 8 8 9 9 10 10 9 8 7 5 4 3 3 2 2 3 3 4 4 5 5 5 6 7 7 8 8 9 9 9 10 10 10 10 11 11 11 12 12 13 13 13 13 14 14 15 16 16 16 16 16 16
2 2 4 3 4 5 2 3 5 3 2 3 2 3 4 4 1 2 2 5 8 8 11 18 22 24 25 24 23 23 22 21 21 20 19 16 14 12 10 9 8 7 7 6 5 6 6 7 7 7 7 6 4 3 2 1 1 1 2 2 3 3 4 4 5 5 5 6 7 8 8 9 9 9 10 10 10 11 11 11 12 13 13 14 15 15 16 16 16 16 16 17 17 18 19 18 19
2 2 3 4 4 6 3 2 1 3 2 4 2 3 5 2 1 3 4 5 6 7 9 15 18 21 23 23 24 23 22 22 21 20 18 16 13 12 10 8 7 6 5 4 4 4 4 4 4 4 3 2 2 2 2 2 2 3 3 3 3 3 3 4 4 4 5 5 6 7 8 9 10 10 11 12 13 13 14 14 15 15 15 16 16 17 18 18 19 19 20 20 21 21 21 21 21
5 3 5 3 2 4 3 1 2 2 3 4 1 4 4 2 2 3 4 1 1 2 5 9 13 17 19 22 24 24 23 23 22 21 19 16 14 12 10 9 7 6 5 4 3 3 2 2 2 2 3 3 4 4 5 6 6 5 5 4 4 3 3 3 3 3 3 4 5 6 7 9 10 11 12 13 15 16 16 17 18 19 19 19 19 19 19 19 20 20 20 21 22 23 24 23 23
5 3 3 4 3 1 2 2 2 2 4 4 3 4 4 4 4 2 3 6 6 5 5 7 11 17 20 23 26 26 25 25 23 22 21 18 15 13 11 10 8 7 5 4 3 3 2 3 3 4 5 6 7 7 7 7 7 6 4 3 3 2 2 2 2 3 4 5 6 7 8 9 10 12 13 14 15 16 17 18 19 20 21 22 23 23 24 24 24 23 23 23 23 24 25 25 25
3 2 1 2 2 4 3 3 3 3 4 3 4 5 4 5 5 6 8 10 10 9 8 8 14 21 24 27 29 29 28 27 25 24 22 19 17 14 12 10 9 8 7 5 5 4 4 4 5 5 7 8 8 8 7 6 5 4 3 2 2 3 3 4 5 5 7 8 9 10 11 12 13 14 15 16 17 17 18 19 20 21 22 22 23 24 25 26 27 28 28 28 28 28 29 29 28
3 2 2 1 1 2 1 1 3 3 3 3 4 5 5 4 3 6 8 7 11 13 10 10 17 24 28 30 32 31 30 27 25 24 23 21 18 16 14 12 11 10 8 7 6 6 5 6 6 7 8 8 7 7 6 6 5 4 4 3 4 5 6 7 8 10 11 12 13 14 15 16 16 17 18 18 19 19 20 21 21 22 22 23 24 24 25 27 28 29 30 31 32 33 34 35 34
4 4 5 5 3 2 2 4 2 2 2 3 4 6 6 3 1 3 5 5 10 14 13 13 20 27 29 31 32 32 30 28 26 24 23 21 20 18 16 14 12 10 8 8 8 8 8 9 9 10 9 9 8 7 6 5 4 3 4 5 7 8 10 11 12 13 15 15 16 17 18 19 19 20 21 21 22 23 23 23 23 24 24 24 25 26 27 29 30 31 32 32 33 35 36 38 39
Wind_Direction
292 288 283 278 297 291 273 279 154 0 64 87 323 53 232 214 198 253 287 289 297 265 238 281 314 169 235 242 242 261 228 193 189 115 269 260 320 323 321 45 129 138 143 181 192 184 180 184 192 199 205 206 210 213 215 218 219 224 227 229 231 234 235 233 224 213 201 190 188 185 185 187 191 195 198 200 202 208 204 199 184 174 177 177 170 157 169 210 227 219 222 228 239 237 202 193 190
292 285 289 273 302 300 250 303 86 354 52 80 279 168 260 311 329 230 216 225 221 270 259 242 341 219 270 278 288 321 278 256 240 231 271 275 309 318 317 327 300 177 166 176 196 194 188 186 189 195 203 208 211 216 220 223 225 227 228 231 232 234 234 232 226 216 205 198 197 195 198 200 205 213 217 218 219 226 229 226 212 204 195 187 176 165 195 220 227 223 224 228 239 245 223 213 212
298 286 293 260 287 317 218 44 93 64 73 124 269 241 289 0 234 231 217 230 248 311 322 240 259 221 15 11 318 136 278 263 232 242 280 285 309 338 333 310 289 209 190 177 195 201 198 191 191 193 199 205 211 216 220 224 227 231 232 236 237 235 232 228 221 213 207 206 210 211 215 220 228 235 240 237 234 237 241 243 236 227 206 193 197 196 211 224 232 229 225 229 243 251 246 241 239
307 301 303 250 249 342 66 45 120 116 110 184 273 266 245 194 228 240 243 254 234 254 283 305 350 228 296 355 273 223 269 258 215 236 292 307 333 0 353 323 282 229 200 190 192 199 204 199 197 195 198 203 209 214 219 223 226 230 233 236 238 237 233 227 219 213 210 211 216 221 225 232 240 248 254 253 250 247 246 248 244 237 220 205 211 214 223 234 243 236 225 237 258 268 269 268 266
319 6 356 282 235 41 80 71 105 104 164 183 147 267 245 206 229 254 258 217 197 208 284 319 0 280 286 292 247 247 266 243 237 255 311 332 355 6 3 346 294 240 208 199 194 194 201 202 204 201 201 203 207 212 217 221 224 229 231 232 234 233 232 227 221 218 216 217 221 224 229 236 244 252 259 262 260 251 245 248 246 240 228 216 220 223 231 242 248 238 228 249 274 287 288 281 277
340 48 7 4 96 99 97 95 119 157 217 170 146 256 248 213 221 257 228 159 189 193 268 338 9 330 313 294 258 267 281 271 288 278 286 333 357 4 11 11 336 250 218 205 200 204 199 203 208 207 206 206 209 211 215 219 221 227 229 231 233 232 233 228 223 220 220 222 225 227 232 236 243 251 259 264 254 237 230 238 239 233 229 222 223 226 232 244 252 245 242 258 273 282 286 283 279
325 296 344 44 76 39 97 123 177 225 230 172 175 238 247 226 211 236 85 151 222 250 294 0 13 349 347 344 308 294 300 281 285 271 249 319 357 10 20 27 10 285 236 219 213 212 208 207 209 212 212 211 212 212 215 217 219 224 226 230 233 236 237 234 228 224 223 224 226 229 234 238 244 250 260 261 235 217 208 213 225 224 227 228 228 230 236 246 257 258 255 263 270 271 275 276 274
351 321 355 82 49 26 89 113 221 219 239 229 236 243 265 259 213 216 42 91 306 307 332 339 12 16 291 323 309 299 316 295 272 248 244 290 351 26 26 30 20 351 256 234 223 218 220 216 211 215 217 216 218 217 216 217 221 224 225 228 232 236 239 239 235 232 232 231 229 229 234 239 245 251 259 258 225 206 196 190 209 223 230 235 238 240 247 257 265 267 263 265 266 265 268 267 266
10 347 2 72 75 33 45 17 285 245 272 288 282 266 283 277 221 198 105 50 0 318 324 282 312 346 301 310 304 292 315 312 265 238 246 269 288 30 29 30 16 358 299 251 236 229 226 226 220 219 220 221 222 223 221 220 223 225 227 229 232 235 238 240 238 238 240 239 236 234 236 238 246 253 257 256 231 214 202 196 214 238 245 249 254 259 266 272 276 281 277 269 261 262 265 262 260
8 19 70 72 76 48 19 308 294 257 260 286 284 273 289 247 227 131 112 95 37 334 328 270 244 282 308 308 309 313 323 329 276 235 249 268 269 312 14 25 10 347 314 271 252 243 235 232 227 223 223 224 226 227 226 225 226 228 230 231 234 236 238 241 240 240 241 241 241 240 240 240 247 256 257 255 247 235 219 214 223 236 255 266 273 271 271 273 279 286 285 278 262 261 263 258 253
359 24 72 77 67 69 112 234 282 275 271 307 293 259 261 267 244 71 84 112 77 331 320 295 235 247 318 301 303 315 313 323 284 236 255 272 269 275 325 1 359 341 299 277 258 252 245 238 231 226 226 226 229 231 230 230 230 232 233 234 236 238 239 241 241 242 242 241 242 243 242 242 243 245 248 249 251 246 230 226 230 236 257 274 283 281 276 276 278 277 281 289 268 262 259 254 245
350 13 57 88 113 169 174 211 272 286 305 324 283 237 275 292 235 295 52 133 206 307 299 275 237 290 342 301 311 333 340 344 296 246 267 273 267 268 292 330 342 339 302 277 261 256 251 246 239 231 228 228 231 233 234 234 235 235 236 236 238 240 241 242 242 242 243 242 243 243 241 239 236 234 239 240 246 247 237 239 246 248 263 280 293 294 287 285 284 275 277 281 260 262 258 251 240
62 127 77 95 157 153 149 202 269 303 324 286 223 264 328 295 286 258 199 176 256 288 308 262 274 317 307 294 314 15 25 10 349 289 288 279 267 266 283 309 322 329 317 291 276 266 258 254 249 241 234 230 231 234 236 236 238 240 240 240 240 242 243 243 243 243 243 242 242 242 239 235 230 229 233 234 241 245 240 247 258 261 274 293 304 305 298 291 290 288 283 264 253 262 257 250 239
73 138 100 111 87 119 160 230 307 126 288 272 261 302 317 316 328 312 235 312 279 257 337 263 296 317 299 297 311 7 355 342 332 316 303 286 271 266 279 299 308 311 313 304 287 274 265 260 256 251 244 236 234 234 235 236 238 241 243 243 243 244 244 245 245 245 244 242 239 239 238 235 230 228 230 230 236 242 243 250 258 262 276 294 306 308 300 287 288 300 289 257 253 258 254 249 241
75 100 92 109 38 0 185 215 36 122 180 274 307 317 327 334 337 331 334 320 286 305 324 268 285 306 295 288 297 312 321 321 321 318 313 297 276 264 275 291 299 300 300 302 295 285 276 264 256 253 250 246 242 239 238 237 237 240 243 244 244 245 246 247 247 247 245 242 238 237 237 237 233 230 231 232 236 239 243 251 253 254 270 287 301 304 295 281 283 293 271 252 250 249 248 243 241
68 81 72 82 62 245 186 177 104 107 260 258 319 324 330 332 343 344 330 301 292 305 301 289 283 280 279 281 293 306 314 317 318 317 322 314 283 268 275 286 292 296 297 299 300 294 286 274 261 253 250 249 249 247 245 242 240 240 242 244 244 245 246 247 247 247 245 242 239 238 238 236 236 235 235 236 238 240 243 252 256 254 265 281 294 297 291 282 284 288 261 245 245 241 239 237 239
50 66 69 63 170 190 198 197 154 131 266 283 340 334 324 311 319 324 311 288 293 302 301 300 293 284 286 292 302 309 315 319 316 313 320 320 301 282 282 288 293 297 298 298 299 297 295 288 272 259 252 250 250 251 251 249 246 242 242 243 242 243 245 246 246 246 244 242 240 239 239 236 235 236 236 237 240 243 245 255 262 262 266 278 290 293 289 282 282 283 258 244 246 238 234 236 237
41 90 98 237 192 194 187 184 184 154 256 285 327 325 261 287 301 310 298 280 298 307 309 312 312 313 318 319 321 316 316 318 312 309 313 316 312 303 298 299 300 302 302 299 298 299 300 297 283 266 256 252 251 251 252 252 250 247 244 243 241 241 241 241 242 244 243 241 241 240 239 237 236 235 235 237 242 245 245 253 262 265 271 280 286 289 286 279 275 274 259 249 250 243 236 237 240
73 109 111 242 200 209 199 184 191 162 268 271 288 290 249 263 285 303 282 284 306 314 315 323 335 344 347 340 334 324 319 316 313 310 310 314 313 310 309 305 303 304 302 299 299 298 298 300 295 277 261 254 253 253 253 253 253 251 248 246 244 243 242 241 240 242 243 242 241 241 241 241 240 238 235 234 240 246 247 252 260 266 273 278 280 284 284 279 273 266 259 252 249 248 245 242 243
96 106 138 248 215 234 233 211 224 242 276 276 290 283 255 270 278 264 233 287 304 299 303 317 334 342 345 342 336 328 324 322 316 311 309 311 309 306 305 304 303 302 298 293 289 283 284 294 300 293 277 262 255 255 255 255 254 254 252 249 247 246 246 244 242 242 242 242 241 241 243 245 246 243 240 236 237 243 248 253 258 264 269 271 276 282 284 281 275 265 260 255 246 247 249 247 246
180 146 187 233 186 252 263 246 254 258 271 278 293 299 284 295 288 250 265 318 301 293 304 314 325 335 341 344 344 336 332 330 320 310 306 305 302 298 297 300 302 301 297 291 283 275 275 283 290 290 285 274 266 261 259 259 257 256 256 254 251 249 248 248 246 245 244 243 242 243 244 246 247 247 246 241 237 238 244 250 253 257 261 267 275 281 282 281 277 269 264 259 247 246 250 249 248
182 219 239 247 179 239 283 289 289 277 296 297 303 309 295 305 301 279 283 266 273 295 312 316 321 332 342 352 360 353 348 343 334 319 310 306 300 293 292 298 301 300 296 290 284 275 272 275 278 280 278 276 276 274 269 266 263 260 258 257 256 252 250 251 251 248 246 245 243 243 245 247 248 249 249 247 242 238 239 245 248 252 257 264 271 275 280 282 279 273 267 262 249 247 250 250 250
223 266 265 266 248 250 279 289 288 289 299 296 297 295 290 302 300 295 280 266 281 299 308 311 324 340 349 2 7 2 360 356 349 334 320 311 302 297 295 297 298 294 288 284 280 272 267 266 267 271 272 272 274 277 275 273 272 269 264 260 259 257 252 251 253 254 251 248 247 246 245 248 251 251 251 250 247 243 242 243 247 251 257 265 269 270 276 281 280 274 267 261 251 248 250 252 252
206 272 280 277 268 261 276 287 286 286 287 286 291 286 282 281 287 301 288 281 293 305 310 320 339 353 354 1 3 359 358 353 346 335 321 308 299 296 295 297 296 291 283 276 271 266 261 256 253 253 258 262 264 268 272 275 277 276 273 266 261 260 256 251 251 256 256 251 248 249 250 250 253 255 254 254 251 247 247 247 249 253 259 267 272 274 276 280 281 277 269 261 253 250 252 253 254
188 243 277 287 284 280 289 293 287 286 286 290 289 273 271 274 276 280 281 287 303 304 319 350 356 353 347 350 355 352 344 337 329 313 300 291 286 285 287 290 290 288 283 272 265 259 253 250 247 242 240 247 252 258 265 272 276 276 276 275 270 265 262 256 252 252 256 257 252 250 253 252 254 258 258 258 256 251 249 251 253 256 261 267 273 278 281 285 286 281 273 263 255 250 252 253 254
205 229 274 291 292 293 294 289 284 285 286 287 277 271 276 280 277 266 272 289 304 297 343 11 353 343 340 342 343 339 328 319 309 293 280 275 272 271 272 273 276 279 279 271 261 253 247 247 247 244 235 230 238 245 255 265 271 277 280 283 281 275 270 267 260 249 247 254 259 259 261 261 260 260 260 261 260 257 252 251 255 258 263 269 276 283 287 290 290 285 277 269 260 252 251 251 251
248 271 281 281 287 291 289 281 282 283 281 273 250 266 284 256 207 259 274 324 308 314 27 1 343 342 338 338 329 324 316 306 297 284 269 265 263 264 265 264 269 273 276 273 264 255 248 245 246 247 242 233 230 231 243 257 266 276 283 286 285 284 280 273 269 261 246 245 253 259 263 266 266 264 262 262 262 261 257 254 257 261 266 273 281 286 289 291 292 289 282 275 267 256 250 249 249
313 320 300 289 299 297 284 275 281 282 279 266 229 250 289 150 183 250 264 339 339 1 38 6 353 347 337 328 316 309 300 297 294 284 275 271 271 274 273 269 274 277 278 278 273 266 258 251 245 246 251 249 237 223 226 241 257 270 277 283 286 286 284 277 270 269 264 256 255 259 261 264 267 267 265 265 264 262 260 258 260 264 270 277 282 285 288 290 291 290 287 285 278 265 254 249 246
309 333 313 301 333 315 283 268 266 248 254 252 192 259 289 173 220 243 267 315 330 3 30 18 25 28 317 296 295 291 287 290 290 292 296 295 290 288 288 285 284 284 284 286 285 281 272 263 251 247 252 254 245 229 219 223 235 250 262 273 280 282 281 282 278 275 277 274 269 266 265 266 267 270 271 272 270 265 262 262 264 268 273 278 281 284 286 288 288 289 291 294 293 281 264 254 249
293 341 19 310 350 321 283 119 145 245 265 206 150 252 274 250 236 235 291 321 334 10 26 29 62 122 174 221 269 279 282 284 286 298 306 305 302 297 298 298 296 293 292 292 293 293 286 272 259 254 254 253 249 238 226 221 226 233 244 254 267 277 280 283 284 286 284 276 275 275 275 275 273 273 276 276 273 269 267 267 269 273 277 280 282 283 285 287 288 290 293 297 301 298 282 264 256
291 342 42 346 343 277 294 32 194 277 286 191 149 222 265 272 263 265 334 334 341 5 30 54 86 122 156 180 233 272 291 297 297 307 309 313 312 306 305 303 304 303 302 300 297 296 290 274 260 257 257 254 249 241 231 223 230 235 237 241 249 261 271 277 279 280 282 280 278 277 277 279 278 277 276 273 271 270 271 273 278 283 284 282 283 284 285 288 290 293 295 297 301 303 296 278 266
17 318 306 324 195 264 308 321 205 200 206 162 141 206 271 276 280 305 4 337 335 352 39 79 101 116 136 150 149 269 332 336 317 311 310 317 317 316 316 311 311 309 304 301 297 293 286 272 257 253 251 249 247 241 231 223 230 238 239 240 244 251 255 261 266 266 270 273 272 272 274 275 278 280 280 278 275 273 273 275 279 282 282 284 284 285 287 290 294 295 295 296 300 303 299 291 280
358 186 250 269 210 267 319 329 165 143 140 123 137 212 278 277 278 304 343 334 333 354 71 95 108 108 114 105 92 84 55 339 309 312 312 317 322 328 331 329 329 322 310 298 290 285 281 272 259 254 244 240 245 239 230 224 224 228 232 238 245 253 253 251 252 248 251 254 256 259 263 264 267 272 276 279 280 279 279 278 277 277 278 282 283 284 286 289 292 293 292 295 300 302 300 297 292
316 348 231 247 217 230 295 311 10 53 102 179 9 208 258 273 280 295 326 349 357 137 124 112 111 106 106 96 85 80 68 12 335 339 335 335 336 338 342 348 355 357 356 332 305 293 285 287 284 286 258 238 244 231 221 218 217 216 213 221 233 236 243 252 253 251 250 249 250 253 255 255 258 262 266 268 271 273 275 277 279 280 279 281 283 284 285 286 288 289 289 294 298 299 299 299 298
218 211 215 260 251 237 256 265 315 16 33 278 306 262 265 274 280 294 335 21 75 128 127 122 113 108 104 96 88 76 59 52 33 17 6 359 355 358 6 15 27 40 50 59 52 27 355 20 27 21 39 69 79 126 160 174 188 194 191 201 206 190 182 204 223 235 244 248 253 258 257 253 251 251 252 254 257 263 269 274 276 275 273 275 279 279 280 280 281 282 285 291 293 293 294 296 297
193 197 179 214 254 255 246 248 264 309 342 275 254 251 262 271 279 307 346 21 81 112 121 115 110 109 103 96 87 74 65 60 47 35 29 28 35 48 63 76 82 87 82 78 79 75 79 74 61 77 84 82 90 105 119 134 150 163 175 192 185 168 163 178 188 180 190 231 244 251 258 258 254 254 255 258 259 258 262 264 264 266 268 271 272 270 271 271 273 278 285 289 288 288 290 292 295
145 152 177 213 238 265 263 260 280 68 230 269 257 255 267 271 282 329 346 13 68 96 112 108 110 109 101 97 88 78 70 63 58 54 57 60 71 89 98 102 104 105 98 92 94 86 81 83 87 85 80 80 99 114 124 156 184 190 205 216 196 181 187 203 212 208 220 244 258 259 264 271 273 270 265 262 260 258 261 263 263 264 265 266 267 268 269 271 276 284 288 288 287 288 290 291 293
144 171 253 266 240 260 264 256 294 20 178 260 323 324 280 275 286 348 2 32 48 74 111 110 112 108 101 99 90 85 82 82 85 82 83 86 91 99 104 111 112 103 96 92 88 84 83 86 87 85 83 85 88 89 96 117 138 157 200 215 220 226 226 236 243 245 250 256 262 265 264 263 263 262 262 260 258 259 263 268 268 266 264 263 263 264 267 271 276 281 285 286 287 286 288 289 289
195 158 225 268 246 278 284 278 319 39 166 259 329 314 277 282 308 24 32 73 71 83 115 116 116 111 103 102 97 98 99 98 100 96 96 98 98 102 103 102 100 95 92 90 87 87 88 88 86 86 87 88 86 84 86 89 92 90 89 100 110 235 226 236 256 263 266 266 269 271 269 266 263 260 260 262 263 263 263 266 267 266 265 265 266 267 268 270 270 271 275 279 280 279 280 281 282
183 155 176 250 245 314 278 290 333 2 154 261 241 218 272 286 345 52 52 87 88 91 109 110 113 111 106 108 107 107 105 101 100 98 98 99 100 100 99 96 94 93 92 89 88 86 86 85 84 84 84 84 84 82 79 77 78 81 83 85 85 86 90 83 27 299 291 291 287 282 279 274 271 268 267 267 268 268 268 269 268 268 267 267 269 270 270 269 268 266 267 270 274 276 277 278 279
231 202 200 233 237 216 228 282 333 335 357 12 19 311 286 277 258 179 73 88 86 90 101 99 102 108 112 116 114 111 107 104 104 102 102 102 101 98 96 96 94 93 90 87 85 83 81 81 80 80 80 80 80 78 75 70 70 74 77 79 80 82 83 81 76 69 52 26 3 333 315 299 288 282 279 278 278 277 277 276 275 274 273 272 271 271 270 269 268 268 267 267 271 274 275 276 277
271 234 212 221 228 224 231 312 359 354 335 345 29 329 290 304 292 216 167 85 70 79 90 92 99 111 120 120 117 116 112 110 108 106 105 102 101 98 96 95 92 89 86 83 81 80 79 78 78 77 77 76 76 75 74 71 71 72 74 77 79 80 81 79 74 66 59 53 44 29 9 349 333 319 308 301 296 292 290 287 286 284 281 278 274 271 270 268 267 269 271 270 269 270 271 271 271
273 247 207 211 214 213 221 196 85 245 261 297 45 217 269 314 316 224 179 104 72 70 76 93 112 119 125 124 121 122 118 117 114 109 107 104 102 100 96 93 90 86 84 82 81 79 78 77 77 77 75 75 73 72 72 70 69 68 66 68 71 72 71 70 67 61 57 53 46 36 30 24 16 6 350 335 320 312 306 302 300 298 295 291 285 280 274 270 268 269 272 274 274 273 272 272 271
237 246 154 162 179 192 200 165 166 225 253 320 12 113 270 293 280 249 157 124 87 90 85 102 128 133 133 133 130 129 125 121 118 113 110 108 105 101 96 93 89 87 85 83 81 79 77 75 74 74 74 74 72 69 68 66 62 58 55 53 55 58 57 59 60 56 53 50 44 40 38 38 39 39 34 21 2 341 322 314 311 309 307 304 301 297 291 284 276 271 271 272 274 275 276 276 275
245 210 116 125 150 157 133 121 150 315 28 303 306 37 283 263 267 319 117 182 246 205 191 186 160 153 147 143 140 135 131 126 121 117 113 110 107 102 97 93 89 88 85 82 80 77 74 71 70 69 69 69 68 65 61 60 57 53 50 45 47 53 55 57 58 55 54 50 44 41 37 33 34 36 37 37 35 25 8 350 336 325 320 316 313 311 308 302 294 286 280 275 273 273 273 276 277
197 135 94 75 78 86 79 98 115 31 36 241 240 186 226 270 271 295 132 235 250 208 189 193 174 165 158 152 148 142 136 129 124 121 117 113 109 103 98 94 90 87 83 79 77 75 72 70 66 64 65 64 62 59 53 53 54 49 49 47 48 57 62 64 62 59 58 52 45 42 38 34 31 30 32 33 35 35 30 21 10 359 351 343 334 328 322 317 311 303 295 288 282 277 274 273 274
136 109 66 44 30 41 44 55 85 45 279 235 220 193 189 265 278 230 193 211 214 172 162 181 176 171 167 160 156 150 142 135 130 127 123 118 112 107 102 97 92 87 84 81 78 76 73 69 63 61 63 62 59 56 48 48 48 43 47 49 50 58 64 62 53 53 57 50 40 39 36 33 31 29 28 26 26 31 29 23 20 16 9 5 0 357 354 348 341 330 318 306 296 289 283 278 275
114 92 76 68 338 10 23 356 48 128 255 255 245 197 177 233 264 235 225 249 214 180 175 178 177 177 174 167 163 159 149 141 138 133 129 124 118 113 109 102 96 92 89 84 79 75 70 67 60 56 61 60 55 52 43 42 40 36 41 40 37 46 48 38 31 41 51 46 43 46 41 34 30 25 20 14 13 17 17 13 10 6 2 1 1 2 3 2 1 357 349 337 322 309 299 292 287
91 102 100 93 325 2 357 305 279 232 251 272 282 142 189 239 245 228 239 296 301 272 239 189 175 175 175 171 168 164 155 149 146 141 136 131 124 120 115 107 101 98 91 83 78 72 67 65 59 53 57 56 51 47 39 35 29 26 29 19 15 22 16 10 17 25 33 32 34 36 22 10 4 358 356 357 0 2 2 0 357 355 353 354 355 355 354 354 354 354 354 352 348 343 335 324 313
147 146 133 129 127 108 277 265 272 271 272 305 279 213 262 272 270 228 246 295 303 294 268 202 179 175 174 173 171 166 161 157 154 149 144 138 133 127 121 114 107 100 91 83 77 71 64 62 57 50 53 53 48 42 33 27 20 14 9 353 353 357 348 351 357 1 6 5 1 354 349 348 346 344 345 349 354 356 355 354 353 351 349 347 347 346 346 347 346 346 346 346 346 348 348 344 338
177 156 136 146 151 171 222 217 209 259 285 308 285 214 203 221 272 265 255 331 1 12 182 177 175 174 172 171 173 171 167 165 162 156 150 145 141 135 130 123 116 105 95 88 80 71 62 58 52 45 45 46 41 37 28 17 8 352 326 311 320 323 326 330 333 339 343 341 341 340 341 342 341 343 344 344 346 346 346 347 346 344 343 341 340 338 338 339 339 338 338 338 338 339 340 340 338
203 119 112 161 177 164 192 196 171 180 296 297 216 220 223 196 224 344 33 42 49 80 127 149 161 168 169 173 176 176 173 170 167 163 158 156 151 146 142 135 126 116 107 101 89 76 64 54 50 43 45 49 46 46 26 344 303 279 268 277 297 304 310 314 319 326 327 329 333 335 337 339 341 340 339 337 336 336 337 337 336 335 334 334 333 332 332 332 333 333 332 331 329 329 330 332 331
161 126 174 211 178 132 119 261 101 95 257 269 194 239 285 308 329 359 35 50 54 74 118 142 156 164 170 177 180 179 177 174 172 170 168 166 162 159 156 150 143 135 127 121 106 89 73 61 60 64 79 105 134 163 201 218 221 232 236 246 262 267 280 289 293 305 313 321 323 323 325 326 327 326 325 326 327 328 329 329 329 329 328 328 328 327 327 327 327 327 327 327 325 324 324 326 325
128 180 206 184 118 97 102 239 342 42 244 267 216 220 256 258 253 339 26 65 119 103 128 144 159 169 175 182 183 182 180 179 179 179 178 177 175 172 169 167 164 159 156 151 135 116 103 104 116 131 151 168 182 193 200 204 206 211 214 219 228 234 247 265 279 297 306 309 309 311 315 316 316 316 315 316 316 316 318 318 320 320 321 323 324 325 325 324 324 323 323 323 322 320 318 319 320
129 178 184 123 132 155 109 166 217 230 237 268 284 254 237 213 215 215 209 209 196 180 168 162 175 182 185 187 188 187 186 187 187 185 187 187 185 183 181 180 180 176 180 180 173 173 170 167 165 167 180 187 191 193 194 198 198 201 208 210 218 236 260 283 297 305 300 298 302 306 311 312 311 311 310 311 310 310 310 310 310 311 312 313 315 318 319 319 320 321 321 320 318 317 314 313 314
87 109 112 81 151 169 157 160 173 195 221 250 287 290 265 233 204 179 200 202 178 174 186 189 189 189 191 191 191 192 193 193 191 190 193 194 192 191 190 191 193 192 196 198 199 202 194 189 188 186 190 192 193 193 192 198 202 207 223 237 260 283 304 312 314 317 314 315 317 318 318 316 314 313 313 312 312 311 310 309 309 309 309 309 310 312 313 313 314 315 316 316 315 314 312 310 309
139 153 180 211 142 123 188 205 136 145 188 211 256 271 265 255 198 179 205 199 173 179 187 190 194 193 194 196 195 197 196 193 194 196 198 199 198 198 196 198 201 203 207 210 213 214 207 202 200 196 198 199 199 201 204 215 227 240 263 282 304 317 327 331 332 332 332 332 330 327 325 322 321 321 319 317 316 315 314 312 311 311 310 310 310 311 312 311 311 310 311 311 311 310 309 309 308
172 187 196 192 173 137 233 246 191 144 183 182 215 256 262 257 207 204 224 199 180 184 181 184 196 197 198 200 199 199 197 196 199 202 203 204 205 204 204 206 210 213 220 223 222 220 212 207 205 203 206 209 212 218 226 241 261 291 315 329 338 341 341 338 337 336 334 334 331 328 325 322 321 320 318 317 316 315 315 313 312 311 310 310 309 309 309 309 308 307 306 306 306 306 305 305 305